• In Romania
  • List of Countries
  • For 7 days
  • Water Temperature
  • Satellite Maps
  • Weather Map
  • Weather Widgets
  • user-avatar
    Login

    Hourly Weather Nizhniy Shibryay

    Today, 20 May, Sunday

    Time Temperature Precipitation Wind Pressure Humidity
    00:00 +14°C° 0 mm 3 mps 749 mmHg 92%
    01:00 +14°C° 0 mm 2 mps 749 mmHg 92%
    02:00 +14°C° 0 mm 2 mps 749 mmHg 93%
    03:00 +14°C° 0 mm 2 mps 749 mmHg 93%
    04:00 +14°C° 0 mm 2 mps 749 mmHg 92%
    05:00 +15°C° 0 mm 2 mps 749 mmHg 90%
    06:00 +15°C° 0 mm 2 mps 750 mmHg 89%
    07:00 +18°C° 0 mm 1 mps 750 mmHg 84%
    08:00 +20°C° 0 mm 1 mps 750 mmHg 78%
    09:00 +21°C° 0 mm 1 mps 750 mmHg 72%
    10:00 +22°C° 0.2 mm 1 mps 750 mmHg 67%
    11:00 +24°C° 0.2 mm 1 mps 750 mmHg 62%
    12:00 +23°C° 0.2 mm 0 mps 751 mmHg 57%
    13:00 +22°C° 0.3 mm 0 mps 751 mmHg 58%
    14:00 +22°C° 0.3 mm 0 mps 750 mmHg 59%
    15:00 +22°C° 0.3 mm 0 mps 750 mmHg 60%
    16:00 +23°C° 0.2 mm 1 mps 751 mmHg 64%
    17:00 +23°C° 0.2 mm 1 mps 751 mmHg 69%
    18:00 +21°C° 0.2 mm 2 mps 751 mmHg 74%
    19:00 +20°C° 0.5 mm 2 mps 751 mmHg 78%
    20:00 +19°C° 0.5 mm 2 mps 751 mmHg 82%
    21:00 +18°C° 0.5 mm 3 mps 751 mmHg 87%
    22:00 +17°C° 0.3 mm 3 mps 751 mmHg 88%
    23:00 +17°C° 0.3 mm 3 mps 751 mmHg 90%

    Tomorrow, 21 May, Monday

    Time Temperature Precipitation Wind Pressure Humidity
    00:00 +15°C° 0.3 mm 4 mps 751 mmHg 92%
    01:00 +15°C° 0.1 mm 4 mps 752 mmHg 93%
    02:00 +15°C° 0.1 mm 4 mps 752 mmHg 94%
    03:00 +14°C° 0.1 mm 4 mps 752 mmHg 95%
    04:00 +14°C° 0.5 mm 4 mps 752 mmHg 95%
    05:00 +15°C° 0.5 mm 4 mps 753 mmHg 95%
    06:00 +15°C° 0.5 mm 4 mps 753 mmHg 95%
    07:00 +15°C° 1.1 mm 5 mps 753 mmHg 94%
    08:00 +15°C° 1.1 mm 5 mps 753 mmHg 94%
    09:00 +16°C° 1.1 mm 5 mps 754 mmHg 93%
    10:00 +17°C° 0.7 mm 5 mps 754 mmHg 91%
    11:00 +17°C° 0.7 mm 6 mps 754 mmHg 89%
    12:00 +18°C° 0.7 mm 7 mps 754 mmHg 87%
    13:00 +19°C° 1.4 mm 6 mps 754 mmHg 88%
    14:00 +19°C° 1.4 mm 6 mps 755 mmHg 88%
    15:00 +19°C° 1.4 mm 5 mps 755 mmHg 89%
    16:00 +19°C° 0.5 mm 5 mps 755 mmHg 89%
    17:00 +19°C° 0.5 mm 5 mps 755 mmHg 90%
    18:00 +19°C° 0.5 mm 5 mps 755 mmHg 90%
    19:00 +17°C° 0.2 mm 5 mps 755 mmHg 91%
    20:00 +17°C° 0.2 mm 6 mps 755 mmHg 92%
    21:00 +16°C° 0.2 mm 6 mps 756 mmHg 93%
    22:00 +15°C° 0.2 mm 6 mps 756 mmHg 93%
    23:00 +15°C° 0.2 mm 6 mps 756 mmHg 92%

    Day after tomorrow, 22 May, Tuesday

    Time Temperature Precipitation Wind Pressure Humidity
    00:00 +14°C° 0.2 mm 6 mps 757 mmHg 92%
    01:00 +14°C° 0.3 mm 6 mps 757 mmHg 91%
    02:00 +14°C° 0.3 mm 6 mps 757 mmHg 91%
    03:00 +13°C° 0.3 mm 5 mps 757 mmHg 91%
    04:00 +13°C° 0.2 mm 5 mps 757 mmHg 90%
    05:00 +14°C° 0.2 mm 5 mps 758 mmHg 89%
    06:00 +14°C° 0.2 mm 6 mps 758 mmHg 88%
    07:00 +15°C° 0.1 mm 6 mps 758 mmHg 85%
    08:00 +16°C° 0.1 mm 6 mps 758 mmHg 81%
    09:00 +19°C° 0.1 mm 6 mps 759 mmHg 78%
    10:00 +20°C° 0 mm 6 mps 759 mmHg 75%
    11:00 +21°C° 0 mm 6 mps 759 mmHg 71%
    12:00 +23°C° 0 mm 6 mps 759 mmHg 68%
    13:00 +23°C° 0 mm 6 mps 759 mmHg 67%
    14:00 +24°C° 0 mm 6 mps 759 mmHg 67%
    15:00 +24°C° 0 mm 6 mps 759 mmHg 66%
    16:00 +23°C° 0 mm 5 mps 759 mmHg 70%
    17:00 +22°C° 0 mm 5 mps 759 mmHg 73%
    18:00 +21°C° 0 mm 4 mps 759 mmHg 76%
    19:00 +21°C° 0 mm 5 mps 759 mmHg 74%
    20:00 +20°C° 0 mm 5 mps 759 mmHg 73%
    21:00 +19°C° 0 mm 5 mps 759 mmHg 71%
    22:00 +17°C° 0 mm 5 mps 759 mmHg 69%
    23:00 +17°C° 0 mm 5 mps 759 mmHg 68%

    23 May, Wednesday

    Time Temperature Precipitation Wind Pressure Humidity
    00:00 +16°C° 0 mm 5 mps 759 mmHg 66%
    01:00 +16°C° 0 mm 5 mps 759 mmHg 66%
    02:00 +17°C° 0 mm 4 mps 759 mmHg 65%
    03:00 +17°C° 0 mm 4 mps 759 mmHg 64%
    04:00 +15°C° 0 mm 4 mps 759 mmHg 67%
    05:00 +15°C° 0 mm 4 mps 759 mmHg 70%
    06:00 +15°C° 0 mm 4 mps 759 mmHg 72%
    07:00 +17°C° 0 mm 4 mps 759 mmHg 70%
    08:00 +18°C° 0 mm 4 mps 759 mmHg 68%
    09:00 +20°C° 0 mm 4 mps 759 mmHg 66%
    10:00 +21°C° 0 mm 4 mps 759 mmHg 64%
    11:00 +23°C° 0 mm 4 mps 759 mmHg 62%
    12:00 +25°C° 0 mm 4 mps 759 mmHg 59%
    13:00 +25°C° 0 mm 4 mps 758 mmHg 59%
    14:00 +26°C° 0 mm 4 mps 758 mmHg 59%
    15:00 +26°C° 0 mm 4 mps 758 mmHg 59%
    16:00 +26°C° 0 mm 3 mps 757 mmHg 63%
    17:00 +25°C° 0 mm 3 mps 757 mmHg 68%
    18:00 +24°C° 0 mm 3 mps 757 mmHg 72%
    19:00 +22°C° 0 mm 3 mps 757 mmHg 73%
    20:00 +21°C° 0 mm 3 mps 757 mmHg 75%
    21:00 +19°C° 0 mm 3 mps 757 mmHg 76%
    22:00 +18°C° 0 mm 3 mps 756 mmHg 75%
    23:00 +18°C° 0 mm 2 mps 756 mmHg 74%

    24 May, Thursday

    Time Temperature Precipitation Wind Pressure Humidity
    00:00 +17°C° 0 mm 2 mps 756 mmHg 74%
    01:00 +17°C° 0 mm 2 mps 756 mmHg 73%
    02:00 +17°C° 0 mm 2 mps 756 mmHg 73%
    03:00 +16°C° 0 mm 2 mps 756 mmHg 73%
    04:00 +17°C° 0 mm 2 mps 755 mmHg 74%
    05:00 +17°C° 0 mm 2 mps 755 mmHg 75%
    06:00 +17°C° 0 mm 2 mps 755 mmHg 76%
    07:00 +19°C° 0 mm 2 mps 755 mmHg 71%
    08:00 +20°C° 0 mm 2 mps 754 mmHg 67%
    09:00 +23°C° 0 mm 2 mps 754 mmHg 62%
    10:00 +24°C° 0 mm 3 mps 754 mmHg 58%
    11:00 +25°C° 0 mm 3 mps 754 mmHg 54%
    12:00 +27°C° 0 mm 3 mps 753 mmHg 50%
    13:00 +27°C° 0 mm 3 mps 753 mmHg 51%
    14:00 +28°C° 0 mm 3 mps 752 mmHg 51%
    15:00 +28°C° 0 mm 3 mps 752 mmHg 51%
    16:00 +28°C° 0 mm 2 mps 752 mmHg 56%
    17:00 +27°C° 0 mm 2 mps 751 mmHg 60%
    18:00 +27°C° 0 mm 2 mps 751 mmHg 65%
    19:00 +25°C° 0.1 mm 2 mps 751 mmHg 69%
    20:00 +23°C° 0.1 mm 2 mps 751 mmHg 73%
    21:00 +20°C° 0.1 mm 2 mps 751 mmHg 77%
    22:00 +19°C° 0 mm 2 mps 751 mmHg 79%
    23:00 +19°C° 0 mm 3 mps 751 mmHg 81%

    25 May, Friday

    Time Temperature Precipitation Wind Pressure Humidity
    00:00 +18°C° 0 mm 3 mps 750 mmHg 83%
    01:00 +18°C° 0 mm 2 mps 750 mmHg 84%
    02:00 +17°C° 0 mm 2 mps 750 mmHg 85%
    03:00 +17°C° 0 mm 2 mps 750 mmHg 86%
    04:00 +17°C° 0 mm 2 mps 750 mmHg 86%
    05:00 +18°C° 0 mm 2 mps 750 mmHg 85%
    06:00 +18°C° 0 mm 2 mps 750 mmHg 84%
    07:00 +20°C° 0 mm 3 mps 750 mmHg 79%
    08:00 +22°C° 0 mm 3 mps 750 mmHg 74%
    09:00 +25°C° 0 mm 4 mps 750 mmHg 70%
    10:00 +26°C° 0 mm 4 mps 750 mmHg 66%
    11:00 +27°C° 0 mm 4 mps 750 mmHg 62%
    12:00 +28°C° 0 mm 5 mps 750 mmHg 58%
    13:00 +28°C° 0.1 mm 5 mps 750 mmHg 58%
    14:00 +28°C° 0.1 mm 5 mps 750 mmHg 58%
    15:00 +28°C° 0.1 mm 6 mps 751 mmHg 58%
    16:00 +27°C° 0 mm 6 mps 751 mmHg 64%
    17:00 +26°C° 0 mm 7 mps 751 mmHg 70%
    18:00 +24°C° 0 mm 7 mps 752 mmHg 76%
    19:00 +22°C° 0 mm 7 mps 752 mmHg 77%
    20:00 +18°C° 0 mm 7 mps 753 mmHg 79%
    21:00 +16°C° 0 mm 8 mps 754 mmHg 81%
    22:00 +16°C° 0 mm 8 mps 754 mmHg 80%
    23:00 +15°C° 0 mm 8 mps 755 mmHg 78%
    Show more